Weather Roundup
Issued by NWS Chicago, IL

Home | Current Version | Previous Version | Text Only | Print | Product List | Glossary Off
Versions: 1 2 3 4 5 6 7 8 9 10 11 12 13 14 15 16 17 18 19 20 21 22 23 24 25 26 27 28 29 30 31 32 33 34 35 36 37 38 39 40 41 42 43 44 45 46 47 48 49 50

516
NZUS59 KLOT 111703
HRRLOT

CHICAGO AREA WEATHER ROUNDUP
NATIONAL WEATHER SERVICE CHICAGO/ROMEOVILLE IL
1100 AM CST THU FEB 11 2016

NOTE: "FAIR" INDICATES FEW OR NO CLOUDS BELOW 12,000 FEET WITH NO
SIGNIFICANT WEATHER AND/OR OBSTRUCTIONS TO VISIBILITY.

* THESE STATIONS ARE NOT UNDER NWS QUALITY CONTROL. THEY ALSO MAY NOT
  REPORT WEATHER SUCH AS PRECIPITATION OR FOG.

ILZ005-006-012>014-019>023-111800-
NORTHEAST ILLINOIS

CITY           SKY/WX    TMP DP  RH WIND       PRES   REMARKS
OHARE          MOSUNNY   15   0  51 N5        30.32S WCI   8
MIDWAY         MOSUNNY   17   0  47 VRB7      30.33S WCI   8
AURORA         SUNNY     16   3  56 VRB3      30.34R
LANSING*       SUNNY     18   5  57 N3        30.32F
WAUKEGAN       SUNNY     15   1  53 N7        30.30R WCI   5
DUPAGE AIRPORT SUNNY     15   1  53 N7        30.32R WCI   5
WHEELING       SUNNY     15   1  53 NW8       30.33S WCI   4
MORRIS*        SUNNY     17   3  53 CALM      30.33R
$$

WIZ051-052-058>065-066-070>072-111800-
SOUTHEAST WISCONSIN

CITY           SKY/WX    TMP DP  RH WIND       PRES   REMARKS
MILWAUKEE      MOSUNNY   14  -1  51 W9        30.31R WCI   2
KENOSHA*       SUNNY     14   2  58 NW7       30.31R WCI   4
RACINE*        SUNNY     15  -1  49 N7        30.32S WCI   5
BURLINGTON     SUNNY     13   0  55 W6        30.31R WCI   4
WAUKESHA       SUNNY      9   0  66 NW7       30.30R WCI  -3
$$

INZ001>003-010>013-019-020-111800-
NORTHWEST INDIANA

CITY           SKY/WX    TMP DP  RH WIND       PRES   REMARKS
GARY*          MOSUNNY   19   7  58 NW10      30.33R WCI   8
MICHIGAN CITY* NOT AVBL
RENSSELAER*    NOT AVBL
VALPARAISO     MOSUNNY   18   9  68 W12       30.29S WCI   5
$$

LMZ740>746-111800-
SOUTHERN LAKE MICHIGAN

STATION/POSITION TIME  SKY/WX   TEMP WIND        PRES    VSBY
                                AIR  DIR/SP/G
                 (UTC)          (F)  (DEG/KT/KT) (MB)    (MI)
HARRISON CRIB    1600            14  320/ 12/ 15   N/A
BURNHAM HARBOR   1700            17  280/  6/  7   N/A
CALUMET HARBOR   1600                300/  7/  8 1026.0R
BURNS HARBOR     1600            17  300/ 14/ 19 1026.4R
MICHIGAN CITY    1600            20  310/ 10/ 12   N/A
$$

ABBREVIATIONS USED IN REMARKS
   TC - TEMPERATURE IN CELSIUS
  WCI - WIND CHILL INDEX
   HX - HEAT INDEX
  VSB - VISIBILITY
$$




USA.gov is the U.S. government's official web portal to all federal, state and local government web resources and services.